Regional Weather Roundup
Issued by NWS

Home | Current Version | Previous Version | Graphics & Text | Print | Product List | Glossary On
Versions: 1 2 3 4 5 6 7 8 9 10 11 12 13 14 15 16 17 18 19 20 21 22 23 24 25 26 27 28 29 30 31 32 33 34 35 36 37 38 39 40 41 42 43 44 45 46 47 48 49 50
000
ASUS43 KOAX 200802
RWRNE

WEATHER ROUNDUP FOR NEBRASKA
NATIONAL WEATHER SERVICE OMAHA NE
300 AM CDT WED SEP 20 2017

NOTES: SATELLITE DATA IS BEING USED TO AUGMENT CLOUD COVER ABOVE
       12000 FEET.
       "FAIR" INDICATES FEW OR NO CLOUDS BELOW 12,000 FEET WITH NO
       SIGNIFICANT WEATHER AND/OR OBSTRUCTIONS TO VISIBILITY.


NEZ001>004-019>022-054>056-200900-
NEBRASKA PANHANDLE

CITY           SKY/WX    TMP DP  RH WIND       PRES   REMARKS
SCOTTSBLUFF    CLOUDY    54  32  43 W10       29.87R
ALLIANCE       CLOUDY    53  33  46 W22       29.82R
CHADRON        PTCLDY    45  33  63 SW9       29.82R
GORDON         FAIR      53  37  55 W14       29.79R
KIMBALL        CLOUDY    54  28  36 NW30G36   29.87S
SIDNEY         CLOUDY    52  31  44 NW14      29.86S
$$

NEZ057>060-069>072-079>082-200900-
SOUTHWEST NEBRASKA

CITY           SKY/WX    TMP DP  RH WIND       PRES   REMARKS
NORTH PLATTE   CLOUDY    46  41  82 NW7       29.82R
IMPERIAL       CLEAR     50  33  52 NW7       29.86R
LEXINGTON      PTCLDY    51  45  80 NW5       29.79R
MCCOOK         CLEAR     52  36  54 W8        29.82R
OGALLALA       CLEAR     50  34  53 NW5       29.85R
$$

NEZ005>010-023>029-035>040-094-200900-
NORTH CENTRAL NEBRASKA

CITY           SKY/WX    TMP DP  RH WIND       PRES   REMARKS
VALENTINE      CLOUDY    52  47  83 CALM      29.77R
AINSWORTH      CLEAR     50  48  93 CALM      29.80R
BROKEN BOW     PTCLDY    57  44  62 NW7       29.78R
O`NEILL        PTCLDY    56  49  76 NW9       29.77R
ORD            CLEAR     54  47  77 NW6       29.75R
THEDFORD       CLEAR     47  42  82 CALM      29.80R
$$

NEZ041-046>049-061>064-073>077-083>087-200900-
SOUTH CENTRAL NEBRASKA

CITY           SKY/WX    TMP DP  RH WIND       PRES   REMARKS
GRAND ISLAND   PTCLDY    60  51  72 N9        29.73R
AURORA         CLOUDY    63  48  57 N12       29.71R
HASTINGS       CLEAR     62  48  60 NW9       29.73R
HEBRON         CLEAR     70  54  56 N15G21    29.67R
HOLDREGE       CLEAR     55  47  74 NW7       29.77R
KEARNEY        PTCLDY    58  49  72 NW6       29.76R
YORK           PTCLDY    66  50  55 N15G23    29.68R
$$

NEZ011>018-030>034-042>045-200900-
NORTHEAST NEBRASKA

CITY           SKY/WX    TMP DP  RH WIND       PRES   REMARKS
NORFOLK        CLOUDY    63  53  70 N9        29.70R
ALBION         CLEAR     61  51  70 N3        29.72R
BLAIR          CLEAR     77  71  80 S14       29.64R
COLUMBUS       MOCLDY    67  50  54 N15G22    29.69R
FREMONT        CLOUDY    77  70  79 SW7       29.65R
TEKAMAH        MOCLDY    76  70  82 W8        29.64R
WAYNE          CLOUDY    61  58  91 N6        29.70R
$$

NEZ050>053-065>068-078-088>093-200900-
SOUTHEAST NEBRASKA

CITY           SKY/WX    TMP DP  RH WIND       PRES   REMARKS
LINCOLN        CLEAR     79  70  74 SW10      29.63R
OMAHA EPPLEY   MOCLDY    77  69  76 S7        29.63R
BEATRICE       CLOUDY    79  71  75 SW12G21   29.65R
FALLS CITY     CLOUDY    78  69  73 S12G22    29.64S
NEBRASKA CITY  CLOUDY    77  73  86 S17       29.63S
PLATTSMOUTH    CLEAR     77  71  82 S13G18    29.62S
$$

NEZ044-045-051>053-067-200900-
OMAHA AREA

CITY           SKY/WX    TMP DP  RH WIND       PRES   REMARKS
OMAHA EPPLEY   MOCLDY    77  69  76 S7        29.63R
BLAIR          CLEAR     77  71  80 S14       29.64R
FREMONT        CLOUDY    77  70  79 SW7       29.65R
MILLARD        CLEAR     80  72  76 S8        29.63R
OFFUTT AFB     CLEAR     78  69  75 S9        29.63R
PLATTSMOUTH    CLEAR     77  71  82 S13G18    29.62S
WAHOO          CLOUDY    79  71  76 SW6       29.64R
$$




USA.gov is the U.S. government's official web portal to all federal, state and local government web resources and services.